Starlink 32709

operational
NORAD ID: 62439 Int'l Des: 2024-251 Owner: SPXS Country: US Constellation: starlink
LEOCIRCULAR

Starlink 32709について

説明を読み込み中...

リアルタイム位置

3D地球を読み込み中...

次回通過

高度履歴

Altitude vs Time

uPlot chart will show altitude changes over time

軌道要素

1 62439U 24251H 25258.18606043 .00062445 00000-0 20999-2 0 9990
2 62439 53.1595 70.8117 0001350 84.8460 275.2695 15.30244120 41077
Epoch: Sep 15, 2025 • Age: 18 hours

現在のステータス

高度 477.3 km
速度 7.63 km/s
衛星直下点 -7.92°S, 79.87°W
打ち上げ日 Dec 29, 2024
運用期間 0.7 years
タイプ internet

技術仕様

分類 Payload
質量 730.00 kg
乾燥質量 700.00 kg
総質量 730.00 kg
長さ 0.30 m
直径 4.10 m
スパン 29.00 m
形状 Box + pan
製造者 SPXS
バスタイプ Starlink V2M
フェーズステータス In Orbit
所有者/国 SPXS/US

大規模コンステレーション

Loading constellations...